Regional Weather Roundup
Issued by NWS Sioux Falls, SD

Home | Current Version | Previous Version | Text Only | Print | Product List | Glossary Off
Versions: 1 2 3 4 5 6 7 8 9 10 11 12 13 14 15 16 17 18 19 20 21 22 23 24 25 26 27 28 29 30 31 32 33 34 35 36 37 38 39 40 41 42 43 44 45 46 47 48 49 50

000
ASUS43 KFSD 231710
RWRFSD

WEATHER ROUNDUP FOR SE SOUTH DAKOTA/SW MINNESOTA/NW IOWA
NATIONAL WEATHER SERVICE SIOUX FALLS SD
1200 PM CDT SAT AUG 23 2014

NOTE: "FAIR" INDICATES FEW OR NO CLOUDS BELOW 12,000 FEET WITH NO
SIGNIFICANT WEATHER AND OR OBSTRUCTIONS TO VISIBILITY.


SDZ038>040-050-052>070-231800-
SOUTHEAST SOUTH DAKOTA

CITY           SKY/WX    TMP DP  RH WIND       PRES   REMARKS
CHAMBERLAIN    RAIN      70  67  89 SE12      29.83F
HURON          CLOUDY    73  67  81 SE8       29.86F
MADISON        PTSUNNY   73  73 100 SE13G20   29.91S
MITCHELL       PTSUNNY   75  70  84 SE16      29.86F
SIOUX FALLS    CLOUDY    76  70  82 SE13      29.89F
WINNER         CLOUDY    75  67  76 SE18      29.83F
YANKTON        PTSUNNY   75  70  83 E9        29.86F
$$

MNZ071-072-080-081-089-090-097-098-231800-
SOUTHWEST MINNESOTA

CITY           SKY/WX    TMP DP  RH WIND       PRES   REMARKS
FAIRMONT       CLOUDY    64  64 100 SE12      29.91S
JACKSON        CLOUDY    77  68  73 SE7       29.91F
LUVERNE        CLOUDY    77  70  78 SE13G18   29.90F
MARSHALL       CLOUDY    72  66  83 E9        29.92S
MONTEVIDEO     CLOUDY    70  70 100 E9        29.94F FOG
PIPESTONE      CLOUDY    73  68  83 SE12      29.92F
REDWOOD FALLS  CLOUDY    73  69  87 E9        29.90F
TRACY          CLOUDY    74  69  86 E8        29.92F
WINDOM         CLOUDY    75  68  78 E6        29.91F
WORTHINGTON      N/A     77  18  10 SE13      29.92F
$$

IAZ001>003-012>014-020>022-031-032-NEZ013-014-SDZ071-231800-
NORTHWEST IOWA

CITY           SKY/WX    TMP DP  RH WIND       PRES   REMARKS
CHEROKEE       CLOUDY    76  72  87 SE5       29.90S
DENISON        CLOUDY    77  72  83 SE9G20    29.88S
ESTHERVILLE    CLOUDY    76  70  82 SE12      29.91F
LE MARS        CLOUDY    77  72  83 SE12      29.90F
ORANGE CITY    CLOUDY    79  70  73 E8        29.90F
SHELDON        PTSUNNY   75  72  88 SE13      29.89F
SIOUX CITY     CLOUDY    78  71  79 SE12      29.89S
SPENCER        PTSUNNY   77  71  82 SE13      29.91F
STORM LAKE     CLOUDY    75  75 100 SE12G17   29.92R
$$

ABBREVIATIONS USED IN REMARKS
   TC - TEMPERATURE IN CELSIUS
  WCI - WIND CHILL INDEX
   HX - HEAT INDEX
  VSB - VISIBILITY



USA.gov is the U.S. government's official web portal to all federal, state and local government web resources and services.